Resia Pass, Italy

10:01 AM CET on February 23, 2018 (GMT +0100)
Resia Pass

Weather History for LIVE - July, 2013

Change the Weather History Date:

Wednesday, July 10, 2013

  Actual Average Record
Temperature  
Mean Temperature 66 °F -  
Max Temperature 77 °F 64 °F 82 °F (2010)
Min Temperature 55 °F 47 °F 39 °F (2007)
Cooling Degree Days 1    
Growing Degree Days 16 (Base 50)    
Moisture  
Dew Point 46 °F    
Average Humidity 57    
Maximum Humidity 94    
Minimum Humidity 18    
Precipitation  
Precipitation 0.00 in - - ()
Sea Level Pressure  
Sea Level Pressure 30.11 in    
Wind  
Wind Speed 4 mph ()    
Max Wind Speed 9 mph    
Max Gust Speed -    
Visibility 6.2 miles    
Events      
Averages and records for this station are not official NWS values.
T = Trace of Precipitation, MM = Missing Value Source: Averaged Metar Reports

Daily Weather History Graph

Daily Weather History Graph

Search for Another Location

Airport or City:

Trip Planner

Search our weather history database for the weather conditions in past years. The results will help you decide how hot, cold, wet, or windy it might be!

Date:

Astronomy

Jul. 10, 2013 Rise Set
Actual Time 5:34 AM CEST 9:12 PM CEST
Civil Twilight 4:55 AM CEST 9:50 PM CEST
Nautical Twilight 4:04 AM CEST 10:41 PM CEST
Astronomical Twilight 2:53 AM CEST 11:51 PM CEST
Moon 7:50 AM CEST (7/10) 9:59 PM CEST (7/10)
Length of Visible Light 16h 54m
Length of Day
15h 37m
Waxing Crescent, 4% of the Moon is Illuminated
Jul 10
Waxing Crescent
Jul 16
First Quarter
Jul 22
Full
Jul 29
Last Quarter
Aug 6
New

Hourly Weather History & Observations

Time (CEST) Temp. Dew Point Humidity Pressure Visibility Wind Dir Wind Speed Gust Speed Precip Events Conditions
12:55 AM 57.2 °F 53.6 °F 88% 30.24 in 6.2 mi North 4.6 mph - N/A   Mostly Cloudy
4:55 AM 57.2 °F 53.6 °F 88% 30.18 in - North 4.6 mph - N/A   Clear
5:55 AM 55.4 °F 53.6 °F 94% 30.18 in - NNW 4.6 mph - N/A   Clear
6:55 AM 55.4 °F 51.8 °F 88% 30.18 in - North 3.5 mph - N/A   Clear
7:55 AM 55.4 °F 51.8 °F 88% 30.18 in 6.2 mi North 3.5 mph - N/A   Scattered Clouds
8:55 AM 57.2 °F 51.8 °F 82% 30.15 in 6.2 mi North 3.5 mph - N/A   Scattered Clouds
9:55 AM 62.6 °F 55.4 °F 77% 30.15 in 6.2 mi North 3.5 mph - N/A   Scattered Clouds
10:55 AM 68.0 °F 50.0 °F 52% 30.15 in 6.2 mi NNW 5.8 mph - N/A   Scattered Clouds
11:55 AM 68.0 °F 48.2 °F 49% 30.15 in 6.2 mi North 4.6 mph - N/A   Scattered Clouds
12:55 PM 73.4 °F 41.0 °F 31% 30.12 in 6.2 mi North 6.9 mph - N/A   Scattered Clouds
1:55 PM 68.0 °F 37.4 °F 33% 30.12 in 6.2 mi North 6.9 mph - N/A   Scattered Clouds
2:55 PM 69.8 °F 33.8 °F 27% 30.06 in 6.2 mi North 3.5 mph - N/A   Scattered Clouds
3:55 PM 77.0 °F 30.2 °F 18% 30.09 in 6.2 mi North 6.9 mph - N/A   Scattered Clouds
4:55 PM 75.2 °F 39.2 °F 27% 30.04 in 6.2 mi North 9.2 mph - N/A   Scattered Clouds
5:55 PM 71.6 °F 39.2 °F 31% 30.04 in 6.2 mi North 9.2 mph - N/A   Scattered Clouds
6:55 PM 71.6 °F 41.0 °F 33% 30.04 in 6.2 mi North 8.1 mph - N/A   Scattered Clouds
7:55 PM 68.0 °F 41.0 °F 37% 30.04 in 6.2 mi North 9.2 mph - N/A   Scattered Clouds
8:55 PM 64.4 °F 41.0 °F 42% 30.04 in 6.2 mi South 4.6 mph - N/A   Scattered Clouds
9:55 PM 62.6 °F 53.6 °F 72% 30.06 in - North 3.5 mph - N/A   Clear
10:55 PM 60.8 °F 50.0 °F 68% 30.09 in - North 3.5 mph - N/A   Clear
11:55 PM 60.8 °F 50.0 °F 68% 30.09 in - North 3.5 mph - N/A   Clear